Hourly Data Report for August 28, 2015

IQALUIT CLIMATE
NUNAVUT

63°44'50.000" N
68°32'40.000" W
33.50 m
2402592
71321
XFB

Download Data

Hourly Data (August 2015)
Hourly Data Report for August 28, 2015
TIME
LST
Temp Definition
°C
Dew Point Definition
°C
Rel Hum Definition
%
Precip. Amount Definition
mm

Wind Dir Definition
10's deg

Wind Spd Definition
km/h
Visibility Definition
km
Stn Press Definition
kPa
Hmdx Definition


Wind Chill Definition


Weather Definition


00:00 2.4 2.2 99 0.0 12 3   99.84     LegendNANA
01:00 2.3 2.1 99 0.0 14 3   99.87     LegendNANA
02:00 2.1 2.0 99 0.0 0 1   99.90     LegendNANA
03:00 2.6 2.5 99 0.0 28 5   99.91     LegendNANA
04:00 2.2 2.0 99 0.0 19 3   99.94     LegendNANA
05:00 2.6 2.4 99 0.0 34 2   99.95     LegendNANA
06:00 3.3 3.0 98 0.0 0 1   99.98     LegendNANA
07:00 3.1 2.7 97 0.0 14 4   99.98     LegendNANA
08:00 3.8 2.9 94 0.2 16 5   100.01     LegendNANA
09:00 4.7 3.2 90 0.0 15 5   100.02     LegendNANA
10:00 5.3 3.1 86 0.0 14 8   100.03     LegendNANA
11:00 5.0 3.3 89 0.0 16 4   100.00     LegendNANA
12:00 4.6 2.7 88 0.0 15 7   100.04     LegendNANA
13:00 5.4 3.1 86 0.0 15 5   100.07     LegendNANA
14:00 6.0 2.7 79 0.0 14 9   100.10     LegendNANA
15:00 5.0 2.6 85 0.0 16 8   100.10     LegendNANA
16:00 4.9 2.9 87 0.0 15 9   100.13     LegendNANA
17:00 4.3 2.5 88 0.0 16 6   100.14     LegendNANA
18:00 4.7 2.9 88 0.0 18 1   100.18     LegendNANA
19:00 4.6 3.0 90 0.0   0   100.23     LegendNANA
20:00 4.1 3.0 92 0.0 31 3   100.25     LegendNANA
21:00 4.3 3.2 93 0.0 33 6   100.26     LegendNANA
22:00 3.7 2.6 93 0.0 32 12   100.27     LegendNANA
23:00 3.4 2.7 95 0.0 5 3   100.31     LegendNANA

Notes on Data Quality.

Legend

  • E = Estimated
  • M = Missing
  • NA = Not Available*
  • [empty] = Indicates an unobserved value
Date modified: